Regional Weather Roundup
Issued by NWS

Home | Current Version | Previous Version | Graphics & Text | Print | Product List | Glossary On
Versions: 1 2 3 4 5 6 7 8 9 10 11 12 13 14 15 16 17 18 19 20 21 22 23 24 25 26 27 28 29 30 31 32 33 34 35 36 37 38 39 40 41 42 43 44 45 46 47 48 49 50
000
ASUS43 KMKX 020400
RWRWI

WISCONSIN REGIONAL WEATHER ROUNDUP
NATIONAL WEATHER SERVICE MILWAUKEE/SULLIVAN WI
1100 PM CDT FRI AUG 01 2014

NOTE: "FAIR" INDICATES FEW OR NO CLOUDS BELOW 12,000 FEET WITH NO
SIGNIFICANT WEATHER AND/OR OBSTRUCTIONS TO VISIBILITY.

WIZ001-002-006>008-014>016-023>028-020500-
NORTHWEST WISCONSIN

CITY           SKY/WX    TMP DP  RH WIND       PRES   REMARKS
SUPERIOR ARPT  CLEAR     54  52  93 CALM      30.10R
ASHLAND        NOT AVBL
HAYWARD        NOT AVBL
SIREN          CLEAR     64  61  91 CALM      30.08F
RICE LAKE      CLEAR     63  60  87 CALM      30.12R
LADYSMITH      CLEAR     63  59  87 E3        30.13R
EAU CLAIRE     NOT AVBL
MENOMONIE      CLEAR     68  62  80 CALM      30.09S
NEW RICHMOND   CLOUDY    70  60  70 CALM      30.09F
OSCEOLA        PTCLDY    69  64  86 CALM      30.11S
$$

WIZ003>005-009-010-017-018-020500-
NORTH CENTRAL WISCONSIN

CITY           SKY/WX    TMP DP  RH WIND       PRES   REMARKS
WOODRUFF       CLEAR     57  45  64 CALM      30.13S
RHINELANDER    NOT AVBL
EAGLE RIVER    CLEAR     56  56 100 CALM      30.13S
LAND O LAKES   CLEAR     52  51  98 CALM      30.14S FOG
PHILLIPS       CLEAR     57  56  96 CALM      30.12S
TOMAHAWK       CLEAR     55  53  94 CALM      30.13S
MEDFORD        CLEAR     58  58  99 CALM      30.13R FOG
MERRILL        CLEAR     60  59  94 CALM      30.12R
$$

WIZ029-030-035-036-043>047-020500-
CENTRAL WISCONSIN

CITY           SKY/WX    TMP DP  RH WIND       PRES   REMARKS
WAUSAU         NOT AVBL
MOSINEE        CLEAR     59  59 100 CALM      30.13R
MARSHFIELD     NOT AVBL
STEVENS POINT  CLEAR     57  55  92 CALM      30.12S
WAUPACA        CLEAR     61  58  89 CALM      30.11S
WAUTOMA        NOT AVBL
WISC RAPIDS    NOT AVBL
CAMP DOUGLAS   PTCLDY    57  57 100 CALM      30.10R FOG
$$

WIZ011>013-019>022-031-037>040-048>050-020500-
NORTHEAST WISCONSIN

CITY           SKY/WX    TMP DP  RH WIND       PRES   REMARKS
ANTIGO         CLEAR     61  58  92 CALM      30.13S
STURGEON BAY   CLEAR     61  57  88 CALM      30.10S
GREEN BAY      NOT AVBL
MANITOWOC      NOT AVBL
APPLETON       MOCLDY    61  59  94 NW6       30.11R
CLINTONVILLE   CLEAR     57  55  94 SW3       30.10R
OSHKOSH        NOT AVBL
$$

WIZ032>034-041-042-053>061-020500-
SOUTHWEST WISCONSIN

CITY           SKY/WX    TMP DP  RH WIND       PRES   REMARKS
LA CROSSE      NOT AVBL
SPARTA         MOCLDY    65  56  72 CALM      30.10F
VIROQUA        FAIR      65  53  64 SE5       30.11F
BOSCOBEL       NOT AVBL
PRAIRIE DU CHI CLEAR     69  53  57 CALM      30.10R
PLATTEVILLE    FAIR      65  55  71 E8        30.13S
$$

WIZ056-057-062-063-064-067-068-020500-
SOUTH CENTRAL WISCONSIN

CITY           SKY/WX    TMP DP  RH WIND       PRES   REMARKS
BARABOO/DELLS  MOCLDY    61  55  81 CALM      30.10R
LONE ROCK      NOT AVBL
WATERTOWN      PTCLDY    61  58  91 CALM      30.10F
MADISON        NOT AVBL
MIDDLETON      MOCLDY    66  56  71 S12       30.10S
MONROE         MOCLDY    64  55  72 S15       30.12F
JANESVILLE     MOCLDY    64  54  68 S3        30.12R
$$

WIZ051-052-058>065-066-070>072-020500-
SOUTHEAST WISCONSIN

CITY           SKY/WX    TMP DP  RH WIND       PRES   REMARKS
MILWAUKEE      NOT AVBL
WAUKESHA       PTCLDY    59  54  82 CALM      30.12F
MILWAUKEE/TIMM MOCLDY    61  54  77 SW3       30.10F
RACINE         NOT AVBL
BURLINGTON     MOCLDY    59  56  89 W5        30.10F
KENOSHA        NOT AVBL
FOND DU LAC    NOT AVBL
SHEBOYGAN      NOT AVBL
WEST BEND      MOCLDY    61  52  72 W3        30.10R
JUNEAU         PTCLDY    60  54  79 SW3       30.12R
$$

LSZ147-162-020500-
LAKE SUPERIOR

STATION/POSITION TIME  TEMP    WIND        PRES    WAVE
                       AIR SEA DIR/SP/G            HT/PER
                 (UTC) (F)     (DEG/KT/KT) (MB)    (FT/S)
W MID LAKE BUOY  0250   50 47   70/  6/  6 1019.4S   0
PORT WING        0300   59      30/  8/  9 1019.0R
SAXON HARBOR     0300          180/  3/  5 1019.0R
$$

LMZ867-665-643>646-020500-
LAKE MICHIGAN

STATION/POSITION TIME  TEMP    WIND        PRES    WAVE
                       AIR SEA DIR/SP/G            HT/PER
                 (UTC) (F)     (DEG/KT/KT) (MB)    (FT/S)
N MID LAKE BUOY  0250   63 60  160/  2/  4 1019.0R   0
NORTHPORT PIER   0300   64      60/  5/  5 1019.3R
SISTER BAY       0211   63        CALM       N/A
ALGOMA LAKESHORE 0321             CALM       N/A
KEWAUNEE LAKESHO 0300                      1017.9R
SHEBOYGAN LAKESH 0300   71     270/  9/ 10 1018.4F
PORT WASHINGTON  0340   67     260/  8/ 11 1019.0F
ATWATER BUOY     0300   67     230/ 14     1019.6F
MILWAUKEE LAKESH 0300   69     250/ 16/ 19   N/A
S MID LAKE BUOY  0250   67 64  250/  4/  6 1019.1R   0
KENOSHA   LAKESH 0300   69     250/ 12/ 16 1018.3F
$$

TC  - TEMPERATURE IN CELSIUS
VSB - VISIBILITY IN STATUTE MILES
WCI - WIND CHILL INDEX
HX  - HEAT INDEX




USA.gov is the U.S. government's official web portal to all federal, state and local government web resources and services.